Theta_e
323 324 325 325 327 328 332 337 339 337 336 333 332 331 331 330 329 326 327 326 326 325 325 324 315 314 314 314 313 314 314 317 315 314 313 312 311 309 308 304 303 303 302
324 324 327 329 329 330 331 335 336 335 333 330 330 330 330 329 328 326 324 323 321 321 320 320 314 315 315 314 313 313 313 316 315 314 312 310 308 307 305 303 303 302 302
324 324 326 328 330 328 331 332 332 330 329 327 328 327 327 326 325 324 321 320 319 319 318 318 315 315 315 313 312 312 313 316 315 313 311 308 308 306 305 303 303 302 300
323 323 324 325 325 320 318 318 316 319 319 321 325 327 326 325 323 323 320 319 317 318 318 316 315 314 314 312 312 312 312 315 315 312 311 309 309 306 304 303 302 302 301
322 322 322 323 322 319 313 311 310 310 310 311 314 318 320 321 322 322 320 318 317 316 316 316 314 313 312 312 312 312 311 315 314 312 310 310 310 307 305 303 302 302 301
321 320 318 319 318 316 315 314 311 310 309 310 311 314 317 319 318 319 317 316 315 314 313 312 311 311 310 311 310 310 310 312 312 311 310 309 308 307 305 303 302 301 300
322 322 320 319 318 318 317 317 316 314 313 311 313 314 313 312 313 313 314 313 312 312 311 310 309 308 308 308 307 308 308 310 310 310 309 309 308 308 306 304 302 300 299
318 317 317 316 314 313 312 314 314 314 315 318 316 314 311 310 310 311 311 311 312 311 310 309 307 305 305 305 304 304 306 306 308 308 309 308 307 305 306 305 302 300 298
316 315 315 313 312 311 311 311 311 316 316 316 317 317 314 312 311 311 310 310 309 310 309 307 305 303 302 301 301 301 301 303 305 306 305 305 304 305 305 306 303 303 298
316 313 311 310 310 309 310 310 310 317 317 314 316 316 315 314 314 312 309 309 309 309 308 306 304 302 300 300 300 300 300 301 302 303 303 303 304 302 305 305 303 301 300
312 310 310 309 309 309 309 310 311 311 314 315 316 317 314 314 313 311 308 309 308 309 307 306 303 300 299 298 298 299 299 300 300 299 299 300 300 303 304 304 303 301 300
310 310 310 309 308 309 310 311 311 312 312 315 315 314 313 312 310 311 309 307 308 308 308 306 303 301 299 298 299 298 298 298 298 300 298 297 298 300 301 303 302 301 301
309 309 309 308 308 308 311 311 311 311 311 312 313 315 313 312 311 310 308 308 308 308 308 306 303 301 301 300 299 299 298 296 293 294 295 296 298 299 300 301 301 301 302
309 309 308 308 308 309 311 310 310 310 311 311 311 311 313 313 312 312 310 310 308 308 308 306 304 302 301 297 295 295 294 294 295 294 295 297 298 299 300 301 301 301 300
308 308 308 310 310 309 310 309 310 311 309 309 311 311 311 311 311 310 311 311 309 307 307 305 305 304 302 300 295 294 293 295 295 295 296 296 296 299 300 301 301 300 299
308 308 310 310 310 310 309 309 308 307 307 307 307 309 309 309 310 309 309 310 309 308 306 306 305 304 303 302 300 299 293 293 294 294 294 295 295 297 298 300 300 299 298
310 309 309 308 308 310 309 308 307 307 308 309 309 308 308 309 310 309 309 309 308 307 306 306 306 304 302 300 297 295 299 301 297 295 293 293 294 296 297 298 299 298 297
307 307 306 307 308 308 309 308 307 307 307 308 309 308 309 309 308 308 308 307 307 307 306 306 305 304 302 299 300 298 297 298 296 294 293 293 293 294 296 296 297 297 297
305 305 304 305 307 308 308 307 308 307 307 306 309 309 309 308 307 306 306 305 306 307 305 304 303 303 302 300 300 298 296 295 292 292 291 291 290 291 291 295 296 296 296
304 304 304 304 305 305 307 307 305 306 303 303 304 306 307 306 306 305 305 304 305 305 305 304 301 301 301 298 297 296 297 295 294 292 290 290 290 289 289 290 291 291 293
304 303 304 303 303 304 305 306 306 305 304 303 303 305 305 306 305 304 304 304 303 302 302 300 300 299 297 297 298 298 296 295 295 293 290 290 293 292 290 289 289 289 289
302 302 303 303 303 304 304 305 305 304 303 302 304 305 304 304 304 304 303 302 300 300 299 299 297 296 296 297 297 297 295 294 294 291 291 293 291 291 289 289 288 288 288
300 301 303 302 302 303 303 304 304 304 302 301 302 303 304 303 303 302 302 302 301 299 299 297 296 295 295 296 296 294 293 292 291 291 290 290 289 288 288 287 286 286 286
301 301 303 302 302 303 304 305 305 303 303 301 302 302 303 302 301 301 301 301 300 299 298 297 296 296 296 296 295 294 292 291 291 291 290 289 288 287 286 285 284 284 284
301 303 302 303 302 302 303 304 305 303 303 302 301 301 302 300 300 300 300 300 300 299 299 298 297 296 295 296 296 295 293 291 291 290 289 289 290 288 286 285 284 284 283
302 302 303 303 303 303 303 305 305 305 304 303 302 300 301 299 300 299 299 299 299 299 298 297 296 296 296 296 296 295 294 291 290 290 289 289 289 288 287 285 285 284 283
Wind_Speed
9 7 7 4 2 5 6 8 10 13 18 19 22 25 22 20 20 22 29 26 29 30 32 32 27 28 32 33 31 29 31 29 30 27 26 21 20 22 19 16 14 12 12
11 8 7 5 6 6 4 4 13 14 16 19 20 24 28 29 32 31 27 26 27 28 27 29 28 31 36 33 32 35 34 32 34 35 31 21 18 17 15 15 14 14 11
11 8 7 6 4 5 8 8 7 10 13 16 19 22 23 28 26 27 25 27 27 24 25 27 30 28 37 34 36 39 38 36 38 40 31 19 9 22 18 19 15 13 12
9 8 5 5 2 1 2 1 3 4 9 11 18 23 25 27 28 31 33 33 35 37 36 33 37 30 31 32 34 38 43 36 41 36 31 24 14 20 21 20 18 16 14
10 6 4 4 4 5 6 8 11 13 16 16 15 19 24 25 26 29 35 39 40 43 40 39 36 33 30 37 29 33 42 33 40 43 33 25 16 27 29 29 25 19 16
9 6 4 4 2 4 6 9 13 17 19 20 21 21 21 20 21 26 32 37 38 37 35 33 33 35 34 35 33 31 41 31 30 34 37 26 21 26 25 27 28 24 20
12 8 4 1 6 11 16 17 23 23 24 24 25 20 19 18 19 19 22 29 34 33 32 31 32 36 38 36 35 34 33 32 28 35 27 31 23 18 11 19 26 29 22
6 3 3 5 9 13 16 20 24 27 22 25 30 25 19 19 18 19 19 21 24 27 28 29 29 31 32 35 38 41 37 42 30 23 19 19 29 17 19 22 32 27 25
5 5 7 13 17 18 19 20 26 24 22 21 24 24 26 21 20 19 19 21 19 22 23 24 28 27 27 28 33 36 37 37 27 26 23 17 17 22 16 19 32 30 27
7 13 18 21 22 21 21 22 22 20 21 20 27 30 24 21 22 17 15 20 21 21 23 19 21 23 26 26 27 30 34 33 40 30 22 21 26 22 23 19 33 30 27
15 18 19 19 19 21 22 20 20 23 25 24 28 26 20 25 23 20 15 19 18 22 26 20 21 25 22 22 24 26 27 28 28 28 30 29 23 27 31 28 24 30 19
17 18 17 19 22 22 17 14 19 23 22 20 25 20 19 24 19 22 20 18 19 19 19 24 24 18 18 21 20 21 23 25 24 22 22 26 28 25 29 32 25 25 21
22 23 23 21 22 23 15 13 15 17 19 22 22 16 19 24 20 24 24 18 13 16 17 24 28 21 17 16 15 16 14 15 19 21 21 18 22 24 26 28 26 26 23
19 19 20 26 26 21 13 11 12 16 18 18 19 19 18 19 20 24 27 25 22 17 21 25 29 23 21 19 18 17 17 17 18 18 20 19 23 22 23 26 26 25 21
19 20 23 21 25 17 8 10 13 15 17 20 20 18 18 19 21 20 26 30 27 25 21 28 31 23 23 24 24 24 24 25 25 24 24 20 24 26 23 25 26 25 26
22 21 16 17 18 16 19 16 12 15 18 20 21 21 20 20 22 22 21 28 28 27 24 25 30 30 27 26 30 28 30 27 25 26 24 25 24 25 23 25 26 26 26
17 19 20 21 22 24 21 19 19 16 18 19 20 20 19 17 17 19 23 25 25 28 26 26 30 33 30 30 29 29 25 23 27 25 25 21 24 27 28 28 26 26 27
14 18 22 25 24 26 21 22 20 15 17 16 18 17 17 18 19 19 22 23 23 31 28 26 30 35 35 35 29 26 25 22 22 24 29 31 29 31 30 28 28 27 29
16 17 20 24 25 27 24 23 21 14 16 13 16 15 13 16 19 18 21 20 23 29 31 30 31 33 34 35 29 25 24 24 26 27 27 24 21 23 27 33 32 27 28
20 22 21 23 26 29 27 26 31 18 16 14 17 19 20 20 12 15 17 19 21 25 33 31 30 31 35 38 30 28 25 23 24 24 22 21 20 20 20 26 30 28 28
25 26 23 23 26 28 26 24 23 22 16 15 16 14 13 11 14 11 14 15 16 19 26 27 26 29 27 28 28 24 22 20 20 22 23 23 21 19 16 19 21 22 23
29 28 23 25 26 24 22 19 14 16 11 13 8 11 11 11 9 9 8 8 10 14 19 20 21 22 22 24 25 23 22 20 20 22 23 19 19 20 21 20 20 21 22
26 26 24 27 27 26 24 19 18 13 6 10 6 8 11 10 9 7 5 5 7 9 10 13 16 17 19 21 21 23 24 19 15 16 17 16 18 20 19 18 18 20 20
25 26 22 28 30 26 23 14 15 8 3 7 5 5 8 8 9 5 3 3 5 8 10 13 16 17 20 21 22 25 28 24 22 19 15 14 13 15 17 19 20 21 18
24 25 20 29 29 27 25 17 7 3 1 4 3 3 4 6 6 4 3 3 3 5 7 11 15 19 24 23 20 22 30 28 28 23 19 19 19 21 21 21 20 20 19
21 28 26 24 28 28 25 16 9 7 6 5 7 4 3 4 4 5 4 4 5 6 6 7 9 14 18 16 13 16 24 31 27 24 22 20 20 22 22 22 23 23 22
Wind_Direction
116 82 52 33 37 232 165 252 222 238 256 262 251 243 239 239 237 241 265 254 241 244 242 233 220 212 213 214 206 204 198 198 190 180 178 179 179 196 203 184 195 183 184
120 107 95 93 114 118 152 232 238 252 250 250 253 255 249 250 259 250 254 241 243 245 243 233 210 217 220 217 207 203 198 199 193 186 168 159 170 178 183 180 182 180 189
115 126 98 83 119 146 148 181 213 251 257 261 256 256 256 261 264 258 241 234 233 229 231 237 215 228 227 217 214 206 198 197 195 194 179 157 186 177 184 188 185 171 173
122 119 123 91 38 33 60 330 329 275 290 275 264 259 261 265 266 258 239 232 231 232 226 218 217 218 221 212 219 213 199 200 194 186 190 192 192 182 176 186 192 178 200
137 138 117 89 67 42 14 4 346 331 321 310 288 273 268 268 264 259 252 240 237 233 230 230 227 219 215 214 206 209 210 194 203 191 185 194 219 196 182 173 180 184 188
162 158 162 133 97 336 323 321 325 322 317 312 301 288 273 266 264 260 253 246 241 242 246 252 244 233 224 218 209 212 204 203 200 191 192 204 189 182 178 172 178 178 186
170 173 156 26 312 310 310 305 306 305 305 298 290 276 275 278 272 265 262 262 255 259 259 256 250 241 235 225 219 214 206 208 205 193 191 206 203 186 182 199 186 178 174
154 198 244 265 293 296 305 295 291 287 292 291 297 291 288 283 282 276 266 262 265 266 265 259 254 249 243 234 221 217 208 213 222 187 189 198 205 209 215 209 180 166 174
192 243 278 305 322 321 313 297 306 274 270 277 271 276 279 281 288 286 276 274 272 269 264 261 257 246 232 223 222 213 211 217 199 207 203 186 204 212 196 233 203 204 170
288 313 318 319 314 312 309 300 295 273 270 273 265 267 266 271 277 266 269 262 281 271 258 252 245 234 237 228 226 219 215 212 208 205 198 208 203 211 225 217 203 201 199
310 319 316 309 309 307 300 296 293 279 284 271 264 260 261 261 266 248 253 262 258 254 260 252 240 243 224 219 217 216 210 197 190 195 203 211 219 217 218 212 208 200 202
321 318 306 307 308 304 289 290 287 290 290 288 273 253 270 273 273 266 275 273 254 253 276 237 228 247 229 219 211 204 197 195 197 200 206 219 218 222 219 212 206 196 196
317 312 306 305 304 297 279 291 283 287 286 278 270 284 271 270 271 261 257 265 259 262 278 228 229 243 218 206 205 195 188 199 203 201 205 197 195 212 206 206 199 193 206
307 305 316 312 303 293 271 272 274 280 283 289 288 285 276 267 264 272 277 266 245 249 246 228 236 240 218 215 209 198 193 177 192 195 180 192 198 197 206 200 194 192 189
310 313 316 333 326 293 282 264 271 272 285 285 282 280 281 284 275 273 261 259 259 251 248 226 222 223 216 210 203 195 192 184 179 189 170 188 194 193 197 196 195 191 189
318 322 332 332 328 314 299 285 276 286 288 281 279 280 276 276 272 280 279 266 270 258 247 228 224 219 216 211 211 209 196 193 192 195 194 193 191 194 192 194 195 199 188
327 328 323 324 322 311 284 274 293 286 289 289 284 278 279 276 279 267 267 265 268 256 256 244 229 221 218 213 212 212 227 225 216 204 193 194 202 193 195 193 193 190 184
322 319 312 306 298 297 285 280 276 280 289 292 301 279 270 267 272 275 267 264 263 249 249 243 229 222 218 214 216 211 214 210 204 197 195 201 203 196 194 197 197 193 189
305 303 312 305 288 294 302 268 280 275 275 292 297 291 274 270 274 265 265 264 254 242 240 241 231 226 221 216 214 209 204 198 198 199 205 207 201 201 200 200 203 200 197
292 292 298 302 296 290 295 276 270 265 287 288 280 274 274 280 266 266 259 256 242 238 233 232 228 234 229 214 208 204 201 196 200 204 205 204 199 193 197 203 205 207 206
289 293 286 295 292 292 290 282 266 278 289 299 287 262 258 258 278 283 265 257 252 243 226 223 232 234 230 214 205 210 201 206 209 208 208 204 204 203 211 214 211 211 210
295 297 286 289 293 292 293 275 268 280 299 321 295 234 246 275 282 281 272 264 241 231 228 241 234 233 220 207 206 208 196 203 213 205 208 209 203 209 220 217 218 217 214
295 295 280 285 293 287 289 262 258 260 299 351 332 264 253 271 273 273 275 277 245 227 221 222 220 214 203 200 199 196 179 190 200 203 207 202 204 206 207 211 215 219 216
295 294 283 288 299 280 287 282 223 230 345 12 352 272 268 279 262 255 270 272 253 234 224 215 208 203 201 196 193 190 181 185 195 208 205 200 196 202 207 205 208 214 212
304 313 296 287 293 292 294 220 237 231 14 317 323 3 258 257 257 242 250 249 247 254 254 242 223 206 202 205 205 198 195 197 205 204 203 208 212 211 211 210 216 220 217
311 311 310 289 278 294 290 290 223 221 207 236 300 325 294 257 258 257 253 239 236 230 229 230 231 225 220 220 214 207 208 207 211 213 216 219 217 214 214 215 216 218 219